Home   Weather   Astrakhan   Past weeks
Flag for Russia

Past Weather in Astrakhan, Russia — Yesterday and Last 2 Weeks

Now
64 °F

Clear.


Feels Like: 64 °F
Forecast: 79 / 54 °F
Wind: 6 mph from West

Location: Astrakhan

Current Time: May 20, 2019 at 1:08:20 am

Latest Report: May 20, 2019 at 12:30 am


Visibility: 10 mi

Pressure: 29.86 "Hg

Humidity: 68%

Dew Point: 54 °F

Location of AstrakhanLocation

Past Weather in Astrakhan — Graph

°F

Astrakhan Temperature Yesterday

Maximum temperature yesterday: 82 °F (at 3:00 pm)
Minimum temperature yesterday: 61 °F (at 12:00 am)
Average temperature yesterday: 71 °F

High & Low Weather Summary for the Past Weeks

 TemperatureHumidityPressure
High91 °F (May 17, 3:30 pm)100% (May 7, 4:30 am)30.01 "Hg (May 7, 4:30 am)
Low50 °F (May 7, 4:30 am)12% (May 19, 4:30 pm)29.68 "Hg (May 9, 2:30 am)
Average70 °F56%29.88 "Hg
* Reported May 4 11:30 pm — May 19 11:30 pm, Astrakhan. Weather by CustomWeather, © 2019

Note: Actual official high and low records may vary slightly from our data, if they occured in-between our weather recording intervals... More about our weather records

Advertising

Astrakhan Weather History for the Previous 24 Hours

Scroll right to see more
 ConditionsComfort  
Time TempWeatherWind HumidityBarometerVisibility
11:30 pm
Sun, May 19
64 °FClear.6 mph68%29.86 "Hg10 mi
11:00 pm64 °FClear.1 mph68%29.89 "Hg10 mi
10:30 pm66 °FClear.3 mph60%29.86 "Hg10 mi
10:00 pm68 °FClear.3 mph56%29.89 "Hg10 mi
9:30 pm68 °FClear.6 mph53%29.86 "Hg10 mi
9:00 pm72 °FPassing clouds.3 mph44%29.86 "HgN/A
8:30 pm72 °FSunny.3 mph41%29.86 "Hg10 mi
8:00 pm75 °FPassing clouds.3 mph34%29.83 "HgN/A
7:30 pm79 °FPassing clouds.3 mph15%29.83 "HgN/A
7:00 pm81 °FPassing clouds.3 mph14%29.83 "HgN/A
6:30 pm81 °FSunny.1 mph14%29.83 "Hg10 mi
6:00 pm81 °FPassing clouds.3 mph13%29.83 "HgN/A
5:30 pm81 °FPassing clouds.3 mph13%29.83 "HgN/A
5:00 pm81 °FPassing clouds.3 mph13%29.83 "HgN/A
4:30 pm82 °FSunny.1 mph12%29.83 "Hg10 mi
4:00 pm81 °FSunny.3 mph13%29.83 "Hg10 mi
3:30 pm81 °FPassing clouds.6 mph13%29.83 "HgN/A
3:00 pm82 °FPassing clouds.8 mph13%29.83 "HgN/A
2:30 pm81 °FSunny.8 mph15%29.83 "Hg10 mi
2:00 pm81 °FPassing clouds.10 mph15%29.83 "HgN/A
1:30 pm81 °FPassing clouds.8 mph15%29.83 "HgN/A
1:00 pm79 °FPassing clouds.6 mph15%29.83 "HgN/A
12:30 pm79 °FPassing clouds.8 mph17%29.83 "HgN/A
12:00 pm79 °FPassing clouds.8 mph18%29.83 "HgN/A
11:30 am77 °FSunny.10 mph18%29.86 "Hg10 mi
11:00 am75 °FSunny.8 mph21%29.86 "Hg10 mi
10:30 am75 °FSunny.10 mph24%29.86 "Hg10 mi
10:00 am73 °FSunny.10 mph29%29.86 "Hg10 mi
9:30 am72 °FSunny.10 mph31%29.86 "Hg10 mi
9:00 am72 °FPassing clouds.10 mph33%29.86 "HgN/A
8:30 am70 °FSunny.10 mph35%29.86 "Hg10 mi
8:00 am68 °FSunny.8 mph38%29.86 "Hg10 mi
7:30 am66 °FSunny.10 mph40%29.86 "Hg10 mi
7:00 am64 °FSunny.10 mph46%29.86 "Hg10 mi
6:30 am63 °FSunny.8 mph52%29.86 "Hg10 mi
6:00 am61 °FClear.8 mph55%29.83 "Hg10 mi
5:30 am61 °FClear.8 mph59%29.83 "Hg10 mi
5:00 am61 °FClear.8 mph63%29.86 "Hg10 mi
4:30 am61 °FClear.8 mph63%29.83 "Hg10 mi
4:00 am61 °FClear.6 mph63%29.86 "Hg10 mi
3:30 am61 °FClear.6 mph63%29.86 "Hg10 mi
3:00 am63 °FClear.6 mph64%29.86 "Hg10 mi
2:30 am63 °FClear.6 mph64%29.86 "Hg10 mi
2:00 am63 °FClear.3 mph59%29.86 "Hg10 mi
1:30 am63 °FClear.6 mph59%29.86 "Hg10 mi
1:00 am61 °FClear.6 mph68%29.86 "Hg10 mi
Weather by CustomWeather, © 2019

See weather overview